UTAAOINN

Guest
Details From UTAA - Ashgabat
To OINN - Noshahr
Flight Number -
Tags Decoded
Created
Modified
Stats Distance 339 nm / 628 km
Max Altitude 0 ft / 0 m
Waypoints 2
Social Downloads 1
Likes 0
Share VATSIM

Download

Looking for another format? Having issues loading an existing format? Contact us
Advertisement - Login to hide

Notes

Decoded

Route

UTAA OINN

ID Type Via Altitude Latitude Longitude Leg Dist Tot Dist Heading (true) Name
O UTAA APT - 0 ft / 0 m 37.97802˚ 58.35791˚ - 0 nm - ASHGABAT
O OINN APT - 0 ft / 0 m 36.66655˚ 51.45443˚ 338 nm 338 nm 259° / 254° -

Altitude Profile

Advertisement - Login to hide

Weather


0- 5 10 15 20 25 30 35+ Temperature / ° C

Clouds and Precipitation
Forecast for 2018-05-25 18:00 UTC. Updated 5 hours ago

Ground ~20,000 ft ~40,000 ft Winds

UTAA

Details ICAO UTAA (ASB)
Name ASHGABAT
Region Tajikistan, Turkmenistan and Uzbekistan
Timezone Asia/Ashgabat (UTC+5.0)
Stats Elevation 692 ft / 211 m (AMSL)
Location 37.982867° 58.363112°
Runways 3
Magnetic Variation 5.023° E

METAR

UTAA 252200Z 16004KT 9999 NSC 21/04 Q1007 NOSIG

Decode

TAF

Not found

Departure Runways

ID Width Length Bearing (true) Bearing (mag) Surface Threshold Offset Overrun Length
11 114 ft / 35 m 5,898 ft / 1,798 m 112.14° 107.12° Asphalt 890 ft / 271 m 0 ft / 0 m
12L 151 ft / 46 m 12,446 ft / 3,794 m 119.49° 114.47° Concrete 0 ft / 0 m 190 ft / 58 m
12R 196 ft / 60 m 9,805 ft / 2,989 m 119.48° 114.46° Concrete 0 ft / 0 m 150 ft / 46 m
29 114 ft / 35 m 5,898 ft / 1,798 m 292.15° 287.13° Asphalt 1,965 ft / 599 m 0 ft / 0 m
30L 196 ft / 60 m 9,805 ft / 2,989 m 299.50° 294.48° Concrete 0 ft / 0 m 150 ft / 46 m
30R 151 ft / 46 m 12,446 ft / 3,794 m 299.51° 294.49° Concrete 0 ft / 0 m 190 ft / 58 m

OINN

Details ICAO OINN (NSH)
Name NOSHAHR
Region Iran
Timezone Asia/Tehran (UTC+4.5)
Stats Elevation -61 ft / -19 m (AMSL)
Location 36.663837° 51.464417°
Runways 1
Magnetic Variation 5.020° E

METAR

OINN 252200Z 00000KT 9999 SCT027 BKN180 24/17 Q1006

Decode

TAF

Not found

Destination Runways

ID Width Length Bearing (true) Bearing (mag) Surface Threshold Offset Overrun Length
10 115 ft / 35 m 6,173 ft / 1,882 m 108.72° 103.70° Asphalt 0 ft / 0 m 492 ft / 150 m
28 115 ft / 35 m 6,173 ft / 1,882 m 288.73° 283.71° Asphalt 492 ft / 150 m 0 ft / 0 m